Location: Newark
(31.9000°N, 35.2000°E)
Time: 21:50:16
(UTC+00:00)

LightSail 2 - Pass Details

Date: 24 October 2019
Orbit: 702 x 726 km, 24.0° (Epoch: 10 November)

Event Time Altitude Azimuth Distance (km) Brightness Sun altitude
Rises 15:35:23 0° 255° (WSW) 3,071 10.7 -8.7°
Reaches altitude 10° 15:39:04 10° 228° (SW) 2,154 8.6 -9.5°
Maximum altitude 15:41:25 13° 201° (SSW) 1,946 7.8 -10.0°
Drops below altitude 10° 15:43:46 10° 173° (S) 2,158 7.7 -10.5°
Sets 15:47:28 0° 146° (SE) 3,079 8.2 -11.3°
